Location: Berg
(47.2344°N, 9.5296°E)
Time: 10:25:57
(UTC+00:00)

Envisat - Pass Details

Date: 20 September 2021
Orbit: 764 x 766 km, 98.2° (Epoch: 20 October)

Event Time Altitude Azimuth Distance (km) Brightness Sun altitude
Rises 03:42:36 0° 23° (NNE) 3,243 6.9 -14.7°
Reaches altitude 10° 03:45:15 10° 35° (NE) 2,311 6.3 -14.3°
Maximum altitude 03:49:35 28° 94° (E) 1,426 5.2 -13.6°
Drops below altitude 10° 03:53:53 10° 152° (SSE) 2,296 5.6 -12.9°
Sets 03:56:29 0° 164° (SSE) 3,216 6.2 -12.5°
